www.pogodaiklimat.ru

Погода и климат >> Архив погоды >> ОАЭ >> Шарджа


ПОГОДА в Шардже

  • Прогноз погоды в Шардже
  • Монитор погоды в Шардже

АРХИВ ПОГОДЫ в Шардже

Время (UTC), дата Ветер
(напр.,м/с)
 
Видим.   Явления Облачность Т
(С)
Тd
(С)
f
(%)
Тe
(С)
Тes
(С)
Комфортность P
(гПа)
Po
(гПа)
Тmin
(С)
Tmax
(С)
R
(мм)
R24
(мм)
S
(см)
21 15.02 В 2 10 км 3/0
[Ac trans]
+19.6 +13.6 68 +22 +22 комфорт 1016.7 1012.6
00 16.02 СВ 2 10 км ясно +19.0 +14.1 73 +21 +21 комфорт 1016.6 1012.4
03 16.02 ЮВ 3 10 км 4/0
[Ac trans]
+18.8 +13.9 73 +20 +20 1017.9 1013.7
06 16.02 Ю 10 10 км 6/0
[Ac trans]
+22.7 +12.6 53 +25 +26 комфорт 1015.7 1011.6 +17.3
09 16.02 Ю 7 6000 м пыль 3/0
[Ac trans]
+29.2 +11.1 33 +30 +33 жарко 1015.4 1011.4
12 16.02 Ю 5 9000 м пыль 4/1 900 м
[Cu hum Ac trans]
+30.7 +9.9 28 +30 +32 жарко 1012.9 1008.9
15 16.02 С 5 10 км 6/3 900 м
[Sc Ac trans]
+23.0 +16.4 66 +28 +28 душно 1014.7 1010.6
18 16.02 СВ 3 10 км 4/0
[Ac trans]
+22.6 +16.4 68 +27 +27 душно 1015.7 1011.6 +31.8
21 16.02 СВ 3 10 км в посл. час дождь 8/1 1200 м
[Sc Ac trans]
+21.5 +17.0 76 +25 +25 комфорт 1015.7 1011.6
00 17.02 В 2 10 км {дождь} 8/0
[Ac trans]
+21.0 +16.7 76 +25 +25 комфорт 1013.8 1009.6 0.0
03 17.02 ЮВ 3 10 км 9/0
[Ac trans]
+21.4 +16.6 74 +25 +25 комфорт 1014.1 1010.0
06 17.02 ЮЗ 1 10 км {дождь} 9/0
[Ac As]
+23.0 +16.0 65 +27 +31 душно 1016.7 1012.6 +19.9
09 17.02 Ю 2 10 км 8/0
[Ac trans]
+24.4 +16.7 62 +28 +36 душно 1014.4 1010.3
12 17.02 З 6 10 км 9/0
[Ac trans]
+24.4 +14.4 54 +27 +28 жарко 1012.4 1008.3 0.0
15 17.02 З 4 10 км 5/0
[Ac trans]
+22.1 +17.9 77 +27 +27 душно 1013.6 1009.4
18 17.02 З 6 10 км 8/4 600 м
[Sc Ac trans]
+22.0 +16.8 72 +26 +26 душно 1014.9 1010.8 +25.5
21 17.02 З 4 10 км 1/0
[Ac trans]
+20.6 +10.7 53 +22 +22 комфорт 1014.4 1010.3
00 18.02 З 4 10 км ясно +18.9 +11.8 63 +20 +20 1014.0 1009.9
03 18.02 ЮЗ 3 10 км 3/3 900 м
[Sc]
+18.0 +10.9 63 +18 +18 1014.9 1010.7
06 18.02 З 6 10 км 1/0
[Ci fib]
+21.4 +9.8 48 +23 +26 комфорт 1015.8 1011.7 +18.0
09 18.02 ЮЗ 7 10 км 4/0
[Ci fib]
+23.5 +8.6 39 +24 +28 комфорт 1013.5 1009.4
12 18.02 З 5 10 км 4/0
[Ac trans]
+22.2 +8.8 42 +24 +25 комфорт 1011.1 1006.9
15 18.02 З 5 10 км 5/0
[Ac trans]
+20.7 +10.0 50 +22 +22 комфорт 1010.9 1006.8
18 18.02 ЮЗ 3 10 км 6/0
[Ac trans]
+20.5 +10.5 53 +23 +23 комфорт 1011.8 1007.6 +23.8
21 18.02 Ю 4 10 км 4/0
[Ac trans]
+18.8 +10.8 60 +19 +19 1010.9 1006.8
00 19.02 Ю 4 10 км 5/0
[Ac trans]
+17.6 +10.6 64 +17 +17 1010.3 1006.2
03 19.02 Ю 4 10 км 6/0
[Ac trans]
+17.1 +10.6 66 +17 +17 1011.0 1006.9
06 19.02 Ю 3 10 км 8/0
[Ac trans Ci fib]
+20.6 +11.0 54 +23 +28 комфорт 1012.2 1008.0 +17.0
09 19.02 В 2 10 км 8/0
[Ac trans Ci fib]
+24.3 +9.0 38 +25 +35 комфорт 1009.9 1005.8
12 19.02 З 5 10 км 8/0
[Ac trans]
+21.9 +12.7 56 +24 +26 комфорт 1009.0 1004.9
18 19.02 З 5 10 км 4/0
[Ac trans]
+21.1 +12.3 57 +23 +23 комфорт 1012.8 1008.7 +24.6
21 19.02 ЮЗ 6 10 км 4/0
[Ac trans]
+20.5 +10.4 52 +22 +22 комфорт 1013.2 1009.1
00 20.02 З 5 10 км 4/4 900 м
[Sc]
+20.0 +10.3 54 +21 +21 комфорт 1013.0 1008.8 0.0
03 20.02 З 7 10 км 3/3 1200 м
[Sc]
+19.5 +9.7 53 +20 +20 1014.7 1010.5
06 20.02 З 9 10 км 3/3 1200 м
[Sc]
+21.2 +9.3 47 +23 +23 комфорт 1016.7 1012.6 +19.4
09 20.02 З 7 10 км 4/4 1200 м
[Cu hum]
+22.5 +8.6 41 +24 +26 комфорт 1016.8 1012.7
12 20.02 З 8 10 км 3/3 1200 м
[Cu hum]
+21.7 +8.7 43 +23 +24 комфорт 1016.2 1012.0
15 20.02 З 5 10 км ясно +20.2 +8.6 47 +21 +21 комфорт 1017.4 1013.2
18 20.02 ЮЗ 3 10 км ясно +19.0 +9.2 53 +20 +20 1019.3 1015.1 +23.2
21 20.02 ЮВ 4 10 км ясно +16.4 +9.2 62 +16 +16 1019.1 1014.9
00 21.02 В 1 10 км ясно +14.0 +8.9 71 +14 +14 1019.3 1015.0
03 21.02 ЮВ 4 10 км 4/4 1200 м
[Sc]
+14.5 +9.5 72 +13 +14 1021.0 1016.7
06 21.02 Ю 3 10 км ясно +20.5 +9.8 50 +22 +31 комфорт 1022.6 1018.4 +13.8
09 21.02 Ю 3 10 км 4/4 1200 м
[Cu hum]
+22.8 +8.6 40 +24 +32 комфорт 1021.0 1016.8
12 21.02 СЗ 6 10 км 1/1 1200 м
[Cu hum]
+21.8 +10.6 49 +24 +25 комфорт 1019.4 1015.3
15 21.02 СЗ 3 10 км 4/0
[Ci fib]
+20.3 +11.4 57 +23 +23 комфорт 1019.9 1015.7
18 21.02 СЗ 2 10 км ясно +19.3 +11.5 61 +21 +21 комфорт 1020.6 1016.4 +23.8
21 21.02 штиль 0 10 км ясно +17.4 +10.6 64 +17 +17 1019.9 1015.6
00 22.02 ЮВ 2 10 км ясно +14.3 +10.1 76 +14 +14 1018.6 1014.4
03 22.02 Ю 2 10 км 5/0
[Ac trans]
+15.7 +10.9 73 +16 +16 1019.7 1015.4
06 22.02 З 2 10 км 6/0
[Ac trans]
+21.5 +12.6 57 +24 +31 комфорт 1021.3 1017.2 +13.4
09 22.02 ЮЗ 3 10 км 8/3 900 м
[Cu hum Ac trans]
+22.8 +13.6 56 +26 +31 жарко 1018.4 1014.3
12 22.02 СЗ 3 10 км 9/3 900 м
[Cu hum Ac trans]
+21.7 +13.4 59 +24 +26 комфорт 1017.4 1013.3
15 22.02 СЗ 3 10 км 9/0
[Ac trans]
+20.5 +13.6 65 +23 +23 комфорт 1017.2 1013.1
18 22.02 С 2 10 км 9/3
[Sc Ac trans]
+20.0 +14.1 69 +23 +23 комфорт 1018.4 1014.2 +24.0

 

Местоположение метеостанции Шарджа (ОАЭ): широта 25.33 долгота 55.52 высота над уровнем моря 33 м.

В архиве по умолчанию представлена погода в Шардже за последнюю неделю. Архивные данные за месяц целиком и за предыдущие месяцы, начиная с января 2011 года, Вы можете получить, выбрав интересующий диапазон дат из раскрывающегося списка и нажав кнопку "Ввод!".


*Определитесь, кто Вы:
робот инопланетянин человек

Внимание! Время в таблицах - всемирное. Для получения местного времени необходимо прибавить поправку, которая равна 4 ч.

Смотрите также архив погоды в соседних городах и на ближайших метеорологических станциях:

Погода в Дубае (ОАЭ) (21 км)
Погода в Рай-эль-Хайма аэропорту (ОАЭ) (52 км)
Погода в Аль-Мактум аэропорту (ОАЭ) (60 км)
Погода в Дибе (Оман) (80 км)
Погода в Фуджейре (ОАЭ) (85 км)
Погода на Острове Абу-Муса (Иран) (89 км)
Погода на Острове Сирри (Иран) (117 км)
Погода в Эль-Хасаб аэропорту (Оман) (117 км)
Погода в Эль-Айне (ОАЭ) (118 км)
Погода в Эль-Хасабе (Оман) (122 км)

Пояснения к столбцам:

Ветер - указаны скорость ветра в м/с - средняя за 10 мин, порывы в срок и между сроками (в фигурных скобках) и направление, откуда дует ветер: С - северный, СВ - северо-восточный, В - восточный, ЮВ - юго-восточный, Ю - южный, ЮЗ - юго-западный, З - западный, СЗ - северо-западный.
Видимость - горизонтальная дальность видимости в метрах или километрах. При видимости от 1 до 10 км при отсутствии осадков обычно наблюдается дымка, при ухудшении видимости до 1 км и менее - туман. В сухую погоду видимость может ухудшаться дымом, пылью или мглою.
Явления - указаны атмосферные явления, наблюдавшиеся в срок или в последний час перед сроком; фигурными скобками обозначены явления, наблюдавшиеся между сроками (за 1-3 часа до срока); квадратными скобками обозначены град или гололедные отложения с указанием их диаметра в мм.
Облачность - указаны через наклонную черту общая и нижняя облачность в баллах и высота нижней границы облаков в метрах; квадратными скобками обозначены формы облаков: Ci - перистые, Cs - перисто-слоистые, Cc - перисто-кучевые, Ac - высококучевые, As - высокослоистые, Sc - слоисто-кучевые, Ns - слоисто-дождевые, Cu - кучевые, Cb - кучево-дождевые. Подробнее классификацию облаков см. в Атласе облаков (PDF).
T - Температура воздуха - температура, измеренная на высоте 2 м над землей.
Td - Температура точки росы - температура, при понижении до которой содержащийся в воздухе водяной пар достигнет насыщения.
f - Относительная влажность воздуха - влажноcть воздуха, измеренная на высоте 2 м над землей.
Te - Эффективная температура - температура, которую ощущает одетый по сезону человек в тени. Характеристика душности погоды. При расчете учитывается влияние влажности воздуха и скорости ветра на теплоощущения человека.
Tes - Эффективная температура на солнце - температура, которую ощущает человек, с поправкой на солнечный нагрев. Характеристика знойности погоды. Зависит от высоты солнца над горизонтом, облачности и скорости ветра. Ночью, в пасмурную погоду, а также при ветре 12 м/с и более поправка равна нулю.
P - Атмосферное давление - приведенное к уровню моря атмосферное давление.
Po - Атмосферное давление - измеренное на уровне метеостанции атмосферное давление.
Tmin - Минимальная температура - минимум температуры воздуха на высоте 2 м над землей.
Tmax - Максимальная температура - максимум температуры воздуха на высоте 2 м над землей.
R - Количество осадков - Количество выпавших осадков за период времени, мм. При наведении курсора мыши на число - период времени, за который выпало указанное количество осадков.
R24 - Количество осадков - Количество выпавших осадков за 24 часа, мм.
S - Снежный покров - Высота снежного покрова, см. При наведении курсора мыши на число - состояние снежного покрова и степень покрытия местности в баллах.